CW4591 Weather Reports


Display with metric or nautical units.
time (UTC)temp
F
wind
direction
speed
MPH
gust
MPH
rain 1hr
in
rain 24hr
in
rain mn
in
humidity
%
barometer
mb
20260504044530 43 154 3.0 8.0 0.00 0.00 0.00 58 1017.4
20260504043039 44 118 2.0 8.0 0.00 0.00 0.00 57 1017.5
20260504041532 44 152 2.0 7.0 0.00 0.00 0.00 55 1017.5
20260504040028 44 139 4.0 8.0 0.00 0.00 0.00 53 1017.5
20260504034528 45 154 3.0 9.0 0.00 0.00 0.00 52 1017.5
20260504033027 45 191 5.0 8.0 0.00 0.00 0.00 50 1017.7
20260504031527 46 208 5.0 10.0 0.00 0.00 0.00 50 1017.7
20260504030031 46 170 3.0 8.0 0.00 0.00 0.00 49 1017.8
20260504024525 46 179 2.0 12.0 0.00 0.00 0.00 49 1017.9
20260504023025 46 123 3.0 9.0 0.00 0.00 0.00 47 1017.9
20260504021523 46 226 4.0 12.0 0.00 0.00 0.00 47 1017.8
20260504020033 46 162 3.0 12.0 0.00 0.00 0.00 46 1017.7
20260504014522 47 174 4.0 12.0 0.00 0.00 0.00 44 1017.8
20260504013025 47 159 4.0 10.0 0.00 0.00 0.00 43 1017.8
20260504011522 47 137 4.0 13.0 0.00 0.00 0.00 42 1018.0
20260504010021 48 184 5.0 9.0 0.00 0.00 0.00 43 1018.1
20260504004536 47 222 4.0 7.0 0.00 0.00 0.00 43 1018.2
20260504003021 47 203 3.0 11.0 0.00 0.00 0.00 42 1018.3
20260504001530 47 201 4.0 11.0 0.00 0.00 0.00 43 1018.3
20260504000019 47 143 6.0 10.0 0.00 0.00 0.00 42 1018.4
20260503234520 48 164 4.0 12.0 0.00 0.00 0.00 40 1018.5
20260503233017 48 171 4.0 13.0 0.00 0.00 0.00 41 1018.5
20260503231521 48 181 2.0 10.0 0.00 0.00 0.00 41 1018.7
20260503230016 48 127 4.0 9.0 0.00 0.00 0.00 40 1018.7
20260503224516 48 128 5.0 11.0 0.00 0.00 0.00 40 1018.6
20260503223015 49 289 4.0 15.0 0.00 0.00 0.00 39 1018.7
20260503221516 48 198 4.0 12.0 0.00 0.00 0.00 40 1018.6
20260503220026 48 359 5.0 11.0 0.00 0.00 0.00 41 1018.5
20260503214525 48 243 6.0 14.0 0.00 0.00 0.00 40 1018.5
20260503213027 48 179 4.0 14.0 0.00 0.00 0.00 41 1018.5
20260503211514 48 166 5.0 13.0 0.00 0.00 0.00 41 1018.5
20260503210016 48 234 7.0 14.0 0.00 0.00 0.00 40 1018.5
20260503204521 49 145 6.0 12.0 0.00 0.00 0.00 39 1018.5
20260503203012 48 195 2.0 10.0 0.00 0.00 0.00 40 1018.6
20260503201505 48 211 4.0 12.0 0.00 0.00 0.00 40 1018.5
20260503200002 47 193 5.0 9.0 0.00 0.00 0.00 42 1018.6
20260503194624 46 177 3.0 8.0 0.00 0.00 0.00 44 1018.7
20260503193101 46 169 2.0 7.0 0.00 0.00 0.00 45 1018.7
20260503191606 46 176 1.0 9.0 0.00 0.00 0.00 46 1018.8
20260503190058 45 206 0.0 7.0 0.00 0.00 0.00 47 1018.9
20260503184554 45 194 0.0 4.0 0.00 0.00 0.00 46 1018.7
20260503183057 44 182 0.0 5.0 0.00 0.00 0.00 49 1018.7
20260503181559 43 37 0.0 0.0 0.00 0.00 0.00 56 1018.8
20260503180050 42 37 0.0 2.0 0.00 0.00 0.00 57 1018.9
20260503174548 42 36 0.0 2.0 0.00 0.00 0.00 58 1018.8
20260503173041 41 37 0.0 0.0 0.00 0.00 0.00 62 1018.8
20260503171536 39 37 0.0 2.0 0.00 0.00 0.00 63 1018.8
20260503081528 38 226 6.0 10.0 0.00 0.00 0.00 54 1016.1
20260503071521 36 143 1.0 4.0 0.00 0.00 0.00 62 1015.6